默认 日期 大小 文件数 浏览量 最新下载 xml
- naked磁力链接相关资源由用户搜索指令自动获取,结果来源于网络,本站不存储任何资料,亦不承担任何责任,请于24小时内删除,搜索到22110个磁力,显示前4000条数据,用时4ms。
    {"NFO.txt": 1271, "Juliet.Naked.2018.1080p.BluRay.x264-DRONES.mkv": 8214767884, "Juliet.Naked.2018.1080p.BluRay.x264-DRONES.srt": 157663}
创建时间: 2018-11-15 08:19:55 大小:7.65 GB 文件数量:3 热度:8 最近下载:2024-10-07 11:25:02
    {"Jenna Dewan Naked (1).jpg": 180120, "Jenna Dewan Naked (2).jpg": 482409, "Jenna Dewan Naked (3).jpg": 96387, "Jenna Dewan Naked (4).jpg": 97114, "Jenna Dewan Naked (5).jpg": 269107}
创建时间: 2018-11-15 08:56:34 大小:1.07 MB 文件数量:5 热度:4 最近下载:2023-04-15 08:20:10
    {"RARBG.to.nfo": 32, "MomsBangTeens - Tucker Pierce, Lexi Lore - Naked Teen Temptress.mp4": 364750113}
创建时间: 2018-11-15 09:06:35 大小:347.85 MB 文件数量:2 热度:26 最近下载:2025-08-01 07:09:05
    {"SNIS-276.jpg": 372082, "SNIS-276.mkv": 3512187951}
创建时间: 2018-11-15 09:25:49 大小:3.27 GB 文件数量:2 热度:87 最近下载:2025-08-15 17:03:02
    {"Juliet,.Naked.2018.1080p.WEBRip.x264-[YTS.AM].mp4": 1663061837}
创建时间: 2018-11-15 09:39:52 大小:1.55 GB 文件数量:1 热度:6 最近下载:2023-04-15 08:30:08
    ... jpg": 175589, "Chrissy Teigen Naked And Spicy (12).jpg": 102451 ... , "Chrissy Teigen Naked And Spicy (13).jpg": 120704 ... , "Chrissy Teigen Naked And Spicy (14).jpg": ... ).jpg": 101425, "Chrissy Teigen Naked And Spicy (27).jpg": 121728 ...
创建时间: 2018-11-15 09:46:18 大小:3.12 MB 文件数量:27 热度:7 最近下载:2024-10-04 19:12:01
    {"Wallhdpic (1).jpg": 148267, "Wallhdpic (1).png": 919942, "Wallhdpic (2).jpg": 149052, "Wallhdpic (3).jpg": 99442, "Wallhdpic (4).jpg": 131471, "Wallhdpic (5).jpg": 133079, "Wallhdpic (6).jpg": 107049, "Wallhdpic (7).jpg": 94529, "Wallhdpic (8).jpg": ...
创建时间: 2018-11-15 10:16:14 大小:69.63 MB 文件数量:200 热度:16 最近下载:2023-04-15 08:40:01
    {"2013-10-31_1080.mp4": 399962573, "NN_2013-12-01_720.mp4": 294951443, "NN_2013-12-02_720.mp4": 215578454, "NN_2013-12-03_720.mp4": 259132145, "NN_2013-12-04_720.mp4": 248221310, "NN_2013-12-06_720.mp4": 243101702, "2013-12-12_1080_all.mp4": 372247205, " ...
创建时间: 2018-11-15 10:30:07 大小:2.32 GB 文件数量:16 热度:40 最近下载:2025-08-12 15:16:01
    ... and-16-scene1.mp4": 392496262, "naked-hollywood-15-and-16-scene2 ... .mp4": 308869583, "naked-hollywood-15-and-16-scene3 ... .mp4": 353991839, "naked-hollywood-15-and-16-scene4 ... and-16-scene9.mp4": 323634164, "naked-hollywood-15-and-16-scene10 ...
创建时间: 2018-11-15 11:44:44 大小:3.09 GB 文件数量:10 热度:13 最近下载:2025-04-03 11:14:01
    {"screens": {"01.jpg": 33655, "02.jpg": 40049, "03.jpg": 55821, "04.jpg": 31527, "05.jpg": 51729, "06.jpg": 40642, "Wet and Naked 1 part 1.wmv.jpg": 251635}, "Wet and Naked 1 part 1.wmv": 1591170695, "X-Desire.net - Free porn forum.url": 113}
创建时间: 2018-11-15 12:12:55 大小:1.48 GB 文件数量:9 热度:63 最近下载:2025-08-23 05:54:02
    {"RARBG.com.txt": 34, "oro-psy.15.12.30.smgn.mp4": 266723918, "oro-psy.15.12.30.smgn.nfo": 7479}
创建时间: 2018-11-15 13:45:34 大小:254.37 MB 文件数量:3 热度:18 最近下载:2025-09-16 15:20:06
    {"Naked.News.2018-11-11_1080_tvc.mp4": 241991747}
创建时间: 2018-11-15 14:23:39 大小:230.78 MB 文件数量:1 热度:21 最近下载:2024-09-19 19:57:02
    {"Sexy Reddit Couple Posing Naked And Sex At Home": {"1 ( ...
创建时间: 2018-11-15 14:33:58 大小:15.08 MB 文件数量:45 热度:14 最近下载:2025-04-14 19:46:03
    {"Torrent Downloaded From ExtraTorrent.cc.nfo": 338, "BurningAngel - Brenna Sparks - Brenna Sparks Naked Stepfather.mp4": 386874135}
创建时间: 2018-11-15 14:47:33 大小:368.95 MB 文件数量:2 热度:25 最近下载:2025-07-17 18:08:02
    {"1 (1).jpg": 272041, "1 (2).jpg": 118809, "1 (3).jpg": 595826, "1 (4).jpg": 1011571, "1 (5).jpg": 754510, "1 (6).jpg": 172821, "1 (7).jpg": 289574, "1 (8).jpg": 149154, "1 (9).jpg": 402387, "1 (10).jpg": 324939, "1 (11).jpg": 343291, "1 (12).jpg": 187132, ...
创建时间: 2018-11-15 15:12:00 大小:18.37 MB 文件数量:59 热度:10 最近下载:2025-07-01 13:03:01
    {"The.Naked.Kitchen.2009.DVDRip.XviD-BiFOS.avi": 733939712, "The.Naked.Kitchen.2009.DVDRip.XviD-BiFOS.srt": 60876}
创建时间: 2018-11-15 16:11:53 大小:700 MB 文件数量:2 热度:8 最近下载:2024-08-25 23:07:02
    ... www.scenetime.com.txt": 103, "Naked.Attraction.S03E04.720p.HDTV.DD2 ... .0.x264-NTb.mkv": 916082159, "Naked.Attraction.S03E04.720p.HDTV.DD2 ...
创建时间: 2018-11-15 16:17:35 大小:877.03 MB 文件数量:7 热度:13 最近下载:2024-12-15 11:59:01
    {"The Naked and the Lens - A Guide to Nude Photography.pdf": 42222671}
创建时间: 2018-11-15 16:29:12 大小:40.27 MB 文件数量:1 热度:10 最近下载:2025-03-13 06:26:03
    {"Torrent-Downloaded-from-ExtraTorrent.cc.txt": 169, "Naked.and.Afraid.S07E03.720p.WEB-DL.H264-FUM[ettv].mkv": 1324948878}
创建时间: 2018-11-15 17:10:05 大小:1.23 GB 文件数量:2 热度:7 最近下载:2025-06-23 17:44:01
    ... 01 The Beatles - Sgt. Pepper Naked.txt": 13508, "BootlegZone - ... The Beatles -- Sgt Pepper Naked Disc 1.url": 80, "BootlegZone ... - The Beatles -- Sgt Pepper Naked Disc 2.url": 80, "BootlegZone ... - The Beatles -- Sgt Pepper Naked Disc 3.url": 80}, "Full ...
创建时间: 2018-11-15 18:24:26 大小:950.25 MB 文件数量:102 热度:7 最近下载:2024-11-27 20:38:01